Tracking 21094 objects as of 11-Aug-2020
HD Live streaming from Space Station
objects crossing your sky now
Track the most recent launched group of Starlink satellites

FLOCK 3P 40

Track FLOCK 3P 40 now!
10-day predictions
FLOCK 3P 40 is classified as:


NORAD ID: 42010
Int'l Code: 2017-008BQ
Perigee: 487.2 km
Apogee: 499.8 km
Inclination: 97.4 °
Period: 94.3 minutes
Semi major axis: 6864 km
RCS: Unknown
Launch date: February 15, 2017
Source: United States (US)
Launch site: SRIHARIKOTA (SRI)
aabbcc
Your satellite tracking list
Your tracking list is empty




NASA's NSSDC Master Catalog

Two Line Element Set (TLE):
1 42010U 17008BQ  20224.27830811  .00001179  00000-0  47955-4 0  9995
2 42010  97.3608 291.1101 0009186 119.8129 240.4024 15.26471469193185
Source of the keplerian elements: AFSPC